Regional Weather Roundup
Issued by NWS

Home | Current Version | Previous Version | Graphics & Text | Print | Product List | Glossary On
Versions: 1 2 3 4 5 6 7 8 9 10 11 12 13 14 15 16 17 18 19 20 21 22 23 24 25 26 27 28 29 30 31 32 33 34 35 36 37 38 39 40 41 42 43 44 45 46 47 48 49 50
000
ASUS43 KMKX 211000
RWRWI

WISCONSIN REGIONAL WEATHER ROUNDUP
NATIONAL WEATHER SERVICE MILWAUKEE/SULLIVAN WI
400 AM CST SAT JAN 21 2017

NOTE: "FAIR" INDICATES FEW OR NO CLOUDS BELOW 12,000 FEET WITH NO
SIGNIFICANT WEATHER AND/OR OBSTRUCTIONS TO VISIBILITY.

WIZ001-002-006>008-014>016-023>028-211100-
NORTHWEST WISCONSIN

CITY           SKY/WX    TMP DP  RH WIND       PRES   REMARKS
SUPERIOR ARPT  CLOUDY    35  35 100 E5        29.54F WCI  31
ASHLAND        CLOUDY    35  34  96 E3        29.56F
HAYWARD        CLOUDY    34  33  96 E3        29.52F FOG
SIREN          FOG       34  34  99 CALM      29.51F VSB 1
CUMBERLAND     FOG       32  32 100 E3        29.51S VSB 1/2
RICE LAKE      FOG       34  34 100 E5        29.53S VSB 1/2 WCI  30
CHETEK         FOG       34  34 100 E6        29.52F VSB 1   WCI  29
LADYSMITH      CLOUDY    35  34  99 E7        29.53F FOG     WCI  29
EAU CLAIRE     CLOUDY    34  34 100 E8        29.51F FOG     WCI  27
MENOMONIE        N/A    N/A N/A N/A MISG        N/A
NEW RICHMOND   CLOUDY    34  34 100 E7        29.49F FOG     WCI  28
OSCEOLA        CLOUDY    35  35 100 E8        29.53S FOG     WCI  28
$$

WIZ003>005-009-010-017-018-211100-
NORTH CENTRAL WISCONSIN

CITY           SKY/WX    TMP DP  RH WIND       PRES   REMARKS
MANITOWISH WTR CLOUDY    32  32 100 SE5       29.54F FOG     WCI  27
ARBOR VITAE    CLOUDY    34  33  96 SE6       29.55F WCI  29
WOODRUFF       CLOUDY    34  33  96 SE6       29.55F WCI  29
RHINELANDER    CLOUDY    33  33 100 SE7       29.55F FOG     WCI  27
EAGLE RIVER    CLOUDY    32  32 100 SE5       29.56F WCI  28
LAND O LAKES   CLOUDY    33  33 100 SE6       29.57F FOG     WCI  28
PHILLIPS       CLOUDY    32  32 100 SE5       29.52F FOG     WCI  28
TOMAHAWK       CLOUDY    32  32  99 CALM      29.55F FOG
MEDFORD        FOG       32  32  99 E6        29.52F VSB 1/2 WCI  27
MERRILL        CLOUDY    33  33 100 E5          N/A  FOG     WCI  28
$$

WIZ029-030-035-036-043>047-211100-
CENTRAL WISCONSIN

CITY           SKY/WX    TMP DP  RH WIND       PRES   REMARKS
WAUSAU         FOG       32  32 100 E7        29.54F VSB 3/4 WCI  26
MOSINEE        FOG       32  32 100 E7        29.56F VSB 1/2 WCI  26
MARSHFIELD     FOG       33  32  96 E9        29.52F VSB 1/2 WCI  25
STEVENS POINT  FOG       32  32 100 E7        29.56F VSB 1   WCI  25
WAUPACA        FOG       36  35  96 CALM      29.58F VSB 1/2
WAUTOMA        LGT RAIN  34  34 100 E6        29.56F VSB 3/4 WCI  29
WISC RAPIDS    FOG       34  34 100 E9        29.54F VSB 3/4 WCI  27
CAMP DOUGLAS   FOG       34  34 100 E6        29.52F VSB 1/4 WCI  29
$$

WIZ011>013-019>022-031-037>040-048>050-211100-
NORTHEAST WISCONSIN

CITY           SKY/WX    TMP DP  RH WIND       PRES   REMARKS
ANTIGO         MIX PCPN  32  32 100 E7        29.56F VSB 3/4 WCI  25
SHAWANO        FOG       34  33  95 NE5       29.61F VSB 1/2 WCI  30
OCONTO         CLOUDY    33  32  99 E3        29.61F VSB 1/2
STURGEON BAY   CLOUDY    35  34  96 SE5       29.62F FOG     WCI  31
GREEN BAY      FOG       36  36 100 E6        29.60F VSB 1/4 WCI  31
MANITOWOC      NOT AVBL
APPLETON       FOG       34  34 100 E5        29.57F VSB 1/4 WCI  30
CLINTONVILLE   CLOUDY    34  32  93 E6        29.59F FOG     WCI  29
OSHKOSH        FOG       34  34 100 E3        29.57S VSB 1/4
$$

WIZ032>034-041-042-053>061-211100-
SOUTHWEST WISCONSIN

CITY           SKY/WX    TMP DP  RH WIND       PRES   REMARKS
LA CROSSE      CLOUDY    40  36  86 N3        29.48F FOG
SPARTA         CLOUDY    34  34 100 E6        29.53F FOG     WCI  29
VIROQUA        CLOUDY    35  35 100 E10       29.47F VSB 1/4 WCI  27
BOSCOBEL       FOG       37  36  96 NE5       29.49F VSB 1/2 WCI  33
PRAIRIE DU CHI FOG       36  35  96 CALM      29.47F VSB 1/2
PLATTEVILLE    CLOUDY    37  37 100 E10       29.48F VSB 1/4 WCI  29
$$

WIZ056-057-062-063-064-067-068-211100-
SOUTH CENTRAL WISCONSIN

CITY           SKY/WX    TMP DP  RH WIND       PRES   REMARKS
REEDSBURG      FOG       34  34 100 CALM      29.53F VSB 1
BARABOO/DELLS  FOG       34  34 100 E6        29.53F VSB<1/4 WCI  29
LONE ROCK      FOG       37  36  93 E8        29.50F VSB 3/4 WCI  31
MINERAL POINT  SNOW      37  37 100 E8        29.48F VSB 1/4 WCI  31
MADISON        FOG       36  36 100 E5        29.53F VSB 1/4 WCI  32
MIDDLETON      CLOUDY    37  37 100 E3        29.52F VSB 1/4
WATERTOWN      CLOUDY    37  37 100 E9        29.53F FOG     WCI  30
MONROE         FOG       36  36 100 E6        29.50F VSB 1/4 WCI  31
JANESVILLE     FOG       39  39 100 E6        29.52F VSB 3/4 WCI  35
$$

WIZ051-052-058>065-066-070>072-211100-
SOUTHEAST WISCONSIN

CITY           SKY/WX    TMP DP  RH WIND       PRES   REMARKS
MILWAUKEE      FOG       39  37  92 E5        29.56F VSB 1/8
WAUKESHA       FOG       36  36 100 NE5       29.56F VSB 1/4 WCI  32
MILWAUKEE/TIMM SNOW      36  34  93 CALM      29.57F VSB 1/4
RACINE         FOG       40  38  93 SE5       29.57F VSB 1/4
KENOSHA        FOG       40  39  97 E8        29.55F VSB 1/4 WCI  34
FOND DU LAC    CLOUDY    37  34  89 SE3       29.56F
SHEBOYGAN      LGT RAIN  36  35  96 E6        29.59F VSB 1/2 WCI  31
WEST BEND      LGT RAIN  36  36 100 NE3       29.58F VSB 1/2
JUNEAU         CLOUDY    36  36  99 E8        29.56F FOG     WCI  29
$$

LSZ147-162-211100-
LAKE SUPERIOR

STATION/POSITION TIME  TEMP    WIND        PRES    WAVE
                       AIR SEA DIR/SP/G            HT/PER
                 (UTC) (F)     (DEG/KT/KT) (MB)    (FT/S)
DEVILS ISLAND    0900   35     130/  5/  6 1002.3F
PORT WING        0940   34      40/  7/  7 1000.7F
SAXON HARBOR     0940   33     170/  1/  2 1001.4F
$$

LMZ867-665-643>646-211100-
LAKE MICHIGAN

STATION/POSITION TIME  TEMP    WIND        PRES    WAVE
                       AIR SEA DIR/SP/G            HT/PER
                 (UTC) (F)     (DEG/KT/KT) (MB)    (FT/S)
NORTHPORT PIER   0940   33        CALM     1003.7F
SISTER BAY       0905   35        CALM       N/A
KEWAUNEE LAKESHO 0930   36     130/  7/  9 1002.8F
SHEBOYGAN LAKESH 0900   37      90/  8/  9 1003.2F
PORT WASHINGTON  0940   37      30/  5/  5 1003.0F
KENOSHA   LAKESH 0900   36        CALM     1002.4
$$

TC  - TEMPERATURE IN CELSIUS
VSB - VISIBILITY IN STATUTE MILES
WCI - WIND CHILL INDEX
HX  - HEAT INDEX




USA.gov is the U.S. government's official web portal to all federal, state and local government web resources and services.